W5CGC Weather Reports


time (UTC)temp
F
wind
direction
speed
knots
gust
knots
rain 1hr
in
rain 24hr
in
rain mn
in
humidity
%
barometer
mb
20260502151534 63 0 0.0 0.0 0.00 0.00 0.00 60 1021.8
20260502123106 49 0 0.0 0.0 0.00 0.00 0.00 85 1020.5
20260502121533 48 0 0.0 0.0 0.00 0.00 0.00 84 1020.2
20260502114539 48 0 0.0 0.0 0.00 0.00 0.00 82 1019.9
20260502113034 48 0 0.0 0.0 0.00 0.00 0.00 81 1019.8
20260502111533 49 0 0.0 0.0 0.00 0.00 0.00 81 1019.5
20260502110044 49 0 0.0 0.0 0.00 0.00 0.00 81 1019.4
20260502104538 49 0 0.0 0.0 0.00 0.00 0.00 81 1019.2
20260502103038 49 0 0.0 0.0 0.00 0.00 0.00 81 1019.1
20260502101545 49 0 0.0 0.0 0.00 0.00 0.00 80 1019.3
20260502070036 51 0 0.0 0.0 0.00 0.00 0.00 70 1019.1
20260502064535 51 0 0.0 0.0 0.00 0.00 0.00 70 1019.1
20260502063046 52 0 0.0 0.0 0.00 0.00 0.00 70 1019.2
20260502061538 52 0 0.0 0.0 0.00 0.00 0.00 70 1019.1
20260502060034 52 0 0.0 0.0 0.00 0.00 0.00 70 1019.0
20260502054538 52 0 0.0 0.0 0.00 0.00 0.00 68 1018.9
20260502053040 53 0 0.0 0.0 0.00 0.00 0.00 68 1018.8
20260502051536 53 0 0.0 0.0 0.00 0.00 0.00 67 1018.9
20260502050037 54 0 0.0 0.0 0.00 0.00 0.00 66 1018.9
20260502044537 55 0 0.0 0.0 0.00 0.00 0.00 66 1019.0
20260502043038 55 0 0.0 0.0 0.00 0.00 0.00 65 1018.9
20260502041537 56 0 0.0 0.0 0.00 0.00 0.00 66 1018.9
20260502040036 56 0 0.0 0.0 0.00 0.00 0.00 65 1018.8
20260502034532 56 0 0.0 0.0 0.00 0.00 0.00 65 1018.8
20260502033039 57 0 0.0 0.0 0.00 0.00 0.00 64 1018.6
20260502031533 57 0 0.0 0.0 0.00 0.00 0.00 62 1018.7
20260502030033 58 0 0.0 0.0 0.00 0.00 0.00 61 1018.6
20260502024536 59 0 0.0 0.0 0.00 0.00 0.00 61 1018.3
20260502023036 59 0 0.0 0.0 0.00 0.00 0.00 63 1018.0
20260502021532 59 0 0.0 0.0 0.00 0.00 0.00 63 1018.0
20260502020035 59 0 0.0 0.0 0.00 0.00 0.00 64 1017.8
20260502014535 59 0 0.0 0.0 0.00 0.00 0.00 62 1017.3
20260502013033 60 0 0.0 0.0 0.00 0.00 0.00 60 1017.0
20260502011536 60 0 0.0 0.0 0.00 0.00 0.00 59 1016.5
20260502010047 61 0 0.0 0.0 0.00 0.00 0.00 58 1016.3
20260502004547 62 0 0.0 0.0 0.00 0.00 0.00 59 1016.0
20260502003046 62 0 0.0 0.0 0.00 0.00 0.00 56 1015.9
20260502001538 63 0 0.0 0.0 0.00 0.00 0.00 54 1015.8
20260502000037 64 0 0.0 0.0 0.00 0.00 0.00 52 1015.6
20260501234532 65 0 0.0 0.0 0.00 0.00 0.00 50 1015.4
20260501233034 65 0 0.0 0.0 0.00 0.00 0.00 50 1015.3
20260501231539 65 0 0.0 0.0 0.00 0.00 0.00 47 1015.1
20260501230039 65 0 0.0 0.9 0.00 0.00 0.00 46 1015.0
20260501224543 65 160 0.0 0.9 0.00 0.00 0.00 47 1015.1
20260501223036 65 0 0.0 0.9 0.00 0.00 0.00 45 1015.1
20260501221531 65 129 0.0 2.6 0.00 0.00 0.00 47 1014.9
20260501220045 64 0 0.0 1.7 0.00 0.00 0.00 47 1014.9
20260501214538 65 143 0.0 1.7 0.00 0.00 0.00 45 1014.9
20260501213047 65 0 0.0 3.5 0.00 0.00 0.00 45 1015.0
20260501211532 65 129 0.0 1.7 0.00 0.00 0.00 46 1015.3
20260501210041 65 143 0.9 2.6 0.00 0.00 0.00 44 1015.5
20260501204533 64 0 0.0 1.7 0.00 0.00 0.00 45 1015.9
20260501203033 64 0 0.9 3.5 0.00 0.00 0.00 44 1015.9
20260501201536 64 169 0.9 3.5 0.00 0.00 0.00 44 1016.1
20260501200035 64 101 0.0 5.2 0.00 0.00 0.00 45 1016.0
20260501194537 64 132 0.9 7.8 0.00 0.00 0.00 43 1015.7
20260501193034 64 139 1.7 6.1 0.00 0.00 0.00 43 1015.5
20260501191537 63 165 0.9 5.2 0.00 0.00 0.00 45 1015.6
20260501190034 63 203 1.7 6.1 0.00 0.00 0.00 42 1015.5
20260501184532 63 113 1.7 7.8 0.00 0.00 0.00 43 1015.4
20260501183034 63 116 1.7 5.2 0.00 0.00 0.00 42 1015.6
20260501181533 64 223 1.7 4.3 0.00 0.00 0.00 42 1015.9
20260501180047 64 213 1.7 7.0 0.00 0.00 0.00 43 1016.0
20260501174541 64 202 1.7 5.2 0.00 0.00 0.00 42 1016.4
20260501173032 64 217 2.6 7.8 0.00 0.00 0.00 42 1016.5
20260501171535 63 208 2.6 7.0 0.00 0.00 0.00 58 1016.5
20260501170044 63 141 0.9 5.2 0.00 0.00 0.00 63 1016.7
20260501164534 62 169 1.7 6.1 0.00 0.03 0.00 63 1016.6
20260501163033 61 189 1.7 4.3 0.00 0.03 0.00 64 1016.9
20260501161538 60 167 0.9 3.5 0.00 0.03 0.00 65 1017.0
20260501160037 60 171 0.9 3.5 0.00 0.03 0.00 67 1017.3
20260501154534 59 168 1.7 3.5 0.00 0.03 0.00 68 1017.1